Home   Weather   Hanau   Past weeks

Flag for Germany Past Weather in Hanau, Hesse, Germany — Yesterday and Last 2 Weeks

Now
55 °F

Light rain. Passing clouds.


Feels Like: 54 °F
Forecast: 52 / 59 °F
Wind: 7 mph from Northeast

Location: Frankfurt-M-Flughafen Airport

Current Time: Oct 1, 2016 at 6:58:28 AM

Latest Report: Oct 1, 2016 at 6:20 AM


Visibility: N/A

Pressure: 29.83 "Hg

Humidity: 94%

Dew Point: 54 °F

Location of HanauLocation

Past Weather in Hanau — Graph

°F

Hanau Temperature Yesterday

Maximum temperature yesterday: 64 °F (at 12:20 AM)
Minimum temperature yesterday: 55 °F (at 9:20 PM)
Average temperature yesterday: 60 °F

High & Low Weather Summary for the Past Weeks

 TemperatureHumidityPressure
High79 °F (Sep 29, 4:20 PM)100% (Sep 17, 6:20 AM)30.36 "Hg (Sep 17, 6:20 AM)
Low46 °F (Sep 21, 7:20 AM)37% (Sep 29, 4:20 PM)29.83 "Hg (Oct 1, 5:20 AM)
Average61 °F73%30.11 "Hg
* Reported Sep 16 5:20 AM — Oct 1 5:50 AM, Hanau, Weather by CustomWeather, © 2016

Note: Actual official high and low records may vary slightly from our data, if they occured in-between our weather recording intervals... More about our weather records

Advertising

Hanau Weather History for the Previous 24 Hours

Scroll right to see more
 ConditionsComfort  
Time TempWeatherWind HumidityBarometerVisibility
5:50 AM
Sat, Oct 1
55 °FLight rain. Passing clouds.5 mph94%29.83 "HgN/A
5:20 AM55 °FLight rain. Partly cloudy.6 mph94%29.83 "Hg5 mi
4:50 AM55 °FLight rain. Partly cloudy.8 mph94%29.86 "Hg4 mi
4:20 AM55 °FRain. Partly cloudy.6 mph94%29.89 "Hg4 mi
3:50 AM55 °FRain. Mostly cloudy.3 mph94%29.89 "Hg4 mi
3:20 AM55 °FRain. Mostly cloudy.6 mph94%29.89 "Hg4 mi
2:50 AM55 °FRain. Overcast.5 mph94%29.92 "Hg4 mi
2:20 AM55 °FLight rain. Partly cloudy.3 mph94%29.92 "HgN/A
1:50 AM55 °FLight rain. Passing clouds.7 mph94%29.92 "HgN/A
1:20 AM57 °FLight rain. Partly cloudy.6 mph88%29.92 "HgN/A
12:50 AM57 °FPassing clouds.6 mph88%29.95 "HgN/A
12:20 AM55 °FPassing clouds.3 mph94%29.95 "HgN/A
11:50 PM
Fri, Sep 30
55 °FPassing clouds.5 mph94%29.95 "HgN/A
11:20 PM55 °FPassing clouds.5 mph94%29.98 "HgN/A
10:50 PM55 °FPassing clouds.3 mph94%29.98 "HgN/A
10:20 PM55 °FPartly cloudy.2 mph94%29.98 "HgN/A
9:50 PM55 °FPassing clouds.1 mph94%29.98 "HgN/A
9:20 PM55 °FPartly cloudy.2 mph94%29.98 "HgN/A
8:50 PM57 °FPartly cloudy.2 mph88%29.98 "HgN/A
8:20 PM57 °FPassing clouds.2 mph88%29.98 "HgN/A
7:50 PM57 °FPartly cloudy.5 mph88%29.98 "HgN/A
7:20 PM59 °FPartly cloudy.2 mph82%29.98 "HgN/A
6:50 PM59 °FBroken clouds.2 mph82%29.98 "HgN/A
6:20 PM59 °FPartly sunny.3 mph82%29.98 "HgN/A
5:50 PM61 °FPartly sunny.6 mph77%29.98 "HgN/A
5:20 PM61 °FBroken clouds.6 mph77%29.98 "HgN/A
4:50 PM61 °FBroken clouds.5 mph77%29.98 "HgN/A
4:20 PM61 °FPartly sunny.5 mph72%29.98 "HgN/A
3:50 PM59 °FPartly sunny.5 mph77%30.01 "HgN/A
3:20 PM59 °FPartly sunny.6 mph72%30.01 "HgN/A
2:50 PM59 °FBroken clouds.12 mph72%30.01 "HgN/A
2:20 PM59 °FBroken clouds.6 mph94%30.01 "HgN/A
1:50 PM59 °FDrizzle. Partly sunny.6 mph94%30.01 "HgN/A
1:20 PM61 °FDrizzle. Partly sunny.5 mph88%30.01 "HgN/A
12:50 PM61 °FBroken clouds.5 mph88%30.01 "HgN/A
12:20 PM61 °FDrizzle. Partly sunny.6 mph88%30.01 "Hg4 mi
11:50 AM63 °FPartly sunny.5 mph77%29.98 "HgN/A
11:20 AM63 °FPartly sunny.5 mph77%29.98 "HgN/A
10:50 AM63 °FPartly sunny.5 mph77%29.98 "HgN/A
10:20 AM63 °FPartly sunny.5 mph77%29.98 "HgN/A
9:50 AM61 °FPartly sunny.3 mph83%29.98 "HgN/A
9:20 AM61 °FPartly sunny.3 mph77%29.98 "HgN/A
8:50 AM61 °FPartly sunny.2 mph77%29.98 "HgN/A
8:20 AM59 °FBroken clouds.5 mph82%29.95 "HgN/A
7:50 AM59 °FPartly sunny.3 mph82%29.95 "HgN/A
7:20 AM59 °FPartly cloudy.2 mph88%29.95 "HgN/A
6:50 AM61 °FPartly cloudy.1 mph83%29.95 "HgN/A
6:20 AM61 °FPartly cloudy.3 mph77%29.95 "HgN/A
Weather by CustomWeather, © 2016

See weather overviewHow to use our weather pages